Weather in Shura

Russia / Mari El Republic     57°07′21″N   48°19′35″E
temp.,
°C
wind,
m/s
gust,
m/s
humid.,
%
clouds,
%
prec.,
mm/h
press.,
hPa
HPBL,
m
27 july, tue
tue2700:00+17wsw411587 0.0 1017276
03:00+15w4116596 0.0 1016271
06:00+15nw48785 0.0 1017357
09:00+19nnw46565 0.0 1017964
12:00+21nw58462 0.0 10161966
15:00+22nw69395 0.0 10152355
18:00+19nnw48502 0.0 1015368
21:00+13nnw34610 0.0 101649
28 july, wed
wed2800:00+10nne33750 0.0 101732
03:00+9sse22790 0.0 101710
06:00+12w34705 0.0 1017133
09:00+18wnw45495 0.0 1016945
12:00+21nw4639100 0.0 10151895
15:00+22nw46375 0.0 10142011
18:00+21nw12520 0.0 101334
21:00+15ese22588 0.0 101211
29 july, thu
thu2900:00+13s3363100 0.0 101227
03:00+13sse3559100 0.0 101087
06:00+16s3774100 0.0 1009188
09:00+18ssw4780100 0.2 1007333
12:00+16s3694100 1.1 1006245
15:00+20s4480100 1.2 1005739
18:00+19s2378100 0.1 1004446
21:00+16s239250 0.1 100458
30 july, fri
fri3000:00+14sw229724 0.0 100422
03:00+14sw339786 0.0 100359
06:00+16wsw489226 0.0 1004269
09:00+22w57695 0.0 1004784
12:00+26w684922 0.3 10032025
15:00+26w5847100 0.3 10031406
18:00+25wnw48535 0.0 1004261
21:00+19w2367100 0.0 100519
31 july, sat
sat3100:00+19wsw22631 0.0 100627
03:00+19wsw355976 0.0 1007105
06:00+18sw3675100 0.0 1007165
09:00+24wsw4655100 0.0 1007595
12:00+27sw474447 0.0 10061749
15:00+20s358088 0.4 100697
18:00+24ssw3765100 0.0 1005188
21:00+19ssw348499 0.6 100554